Japan Airlines Virtual Airport Information Service

Tokyo Narita International Airport

ICAO: RJAA Country: Japan
Latitude: 35.7647 Longitude: 140.386
Latest Arrival : JALJUMP (ROAH-RJAA) Latest Departure : JALJUMP (RJAA-ROAH)


WX CaptureLIVE
Data provided by noaa.gov | Fetched at 14:21:04

METAR : RJAA 231400Z 02006KT 9999 FEW030 10/05 Q1023 NOSIG RMK 1SC030 A3023

TAF : RJAA 231105Z 2312/2418 35004KT 9999 FEW030 BECMG 2403/2406 18005KT


Runway Data for RJAA
Data provided by openaviationdata.com

Runway ID Mag Var Hdg Length Elevation Surface ILS Freq ILS Id ILS Slope
16L -7 156° 8202 ft 135 ft Asphalt 110.7 ITM 3
16R -7 156° 13132 ft 135 ft Asphalt 111.5 IKF 3
34L -7 336° 13132 ft 135 ft Asphalt 111.9 IYQ 3
34R -7 336° 8202 ft 135 ft Asphalt 110.9 ITJ 3

Tokyo Narita International Airport, Japan
Use only for reference purposes



Not for navigational purposes.